TimeEDT,TemperatureF,Dew PointF,Humidity,Sea Level PressureIn,VisibilityMPH,Wind Direction,Wind SpeedMPH,Gust SpeedMPH,PrecipitationIn,Events,Conditions,WindDirDegrees,DateUTC
12:54 AM,69.1,64.9,87,30.18,10.0,SSE,5.8,-,N/A,,Clear,160,2013-06-20 04:54:00
1:50 AM,68.0,64.4,88,30.18,10.0,SSE,5.8,-,N/A,,Mostly Cloudy,150,2013-06-20 05:50:00
1:54 AM,68.0,63.0,84,30.19,10.0,South,8.1,-,N/A,,Scattered Clouds,170,2013-06-20 05:54:00
2:54 AM,66.9,59.0,76,30.19,10.0,South,4.6,-,N/A,,Partly Cloudy,170,2013-06-20 06:54:00
3:54 AM,66.0,57.9,75,30.19,10.0,South,3.5,-,N/A,,Clear,180,2013-06-20 07:54:00
4:54 AM,64.9,60.1,84,30.20,10.0,WSW,3.5,-,N/A,,Clear,250,2013-06-20 08:54:00
5:54 AM,64.9,61.0,87,30.22,10.0,Calm,Calm,-,N/A,,Clear,0,2013-06-20 09:54:00
6:54 AM,66.0,60.1,81,30.25,10.0,Calm,Calm,-,N/A,,Unknown,0,2013-06-20 10:54:00
7:54 AM,69.1,61.0,75,30.25,10.0,SSE,4.6,-,N/A,,Clear,160,2013-06-20 11:54:00
8:54 AM,71.1,61.0,70,30.27,10.0,SE,8.1,-,N/A,,Partly Cloudy,140,2013-06-20 12:54:00
9:54 AM,72.0,61.0,68,30.28,10.0,SSE,10.4,-,N/A,,Clear,150,2013-06-20 13:54:00
10:54 AM,73.9,59.0,59,30.29,10.0,SE,10.4,-,N/A,,Clear,140,2013-06-20 14:54:00
11:54 AM,73.0,57.9,59,30.29,10.0,SE,12.7,-,N/A,,Clear,130,2013-06-20 15:54:00
12:54 PM,73.9,59.0,59,30.29,10.0,SE,12.7,-,N/A,,Clear,130,2013-06-20 16:54:00
1:54 PM,75.0,62.1,64,30.27,10.0,SE,11.5,-,N/A,,Clear,130,2013-06-20 17:54:00
2:54 PM,75.9,57.0,52,30.27,10.0,SSE,8.1,-,N/A,,Clear,160,2013-06-20 18:54:00
3:54 PM,78.1,59.0,52,30.26,10.0,SSE,9.2,-,N/A,,Clear,160,2013-06-20 19:54:00
4:54 PM,77.0,59.0,54,30.25,10.0,South,11.5,-,N/A,,Clear,180,2013-06-20 20:54:00
5:54 PM,75.9,57.9,54,30.25,10.0,SSE,9.2,-,N/A,,Clear,160,2013-06-20 21:54:00
6:54 PM,75.0,57.9,55,30.25,10.0,SSE,9.2,-,N/A,,Clear,160,2013-06-20 22:54:00
7:54 PM,73.0,57.0,57,30.26,10.0,South,6.9,-,N/A,,Clear,180,2013-06-20 23:54:00
8:54 PM,71.1,55.9,59,30.26,10.0,South,8.1,-,N/A,,Clear,180,2013-06-21 00:54:00
9:54 PM,71.1,55.0,57,30.27,10.0,South,11.5,18.4,N/A,,Clear,180,2013-06-21 01:54:00
10:54 PM,70.0,55.0,59,30.28,10.0,SSE,8.1,-,N/A,,Clear,160,2013-06-21 02:54:00
11:54 PM,70.0,48.9,47,30.27,10.0,SSE,9.2,-,N/A,,Clear,160,2013-06-21 03:54:00